EW6338 Weather Reports


time (UTC)temp
F
wind
direction
speed
knots
gust
knots
rain 1hr
in
rain 24hr
in
rain mn
in
humidity
%
barometer
mb
20260505041552 57 188 0.9 4.3 0.00 0.00 0.00 62 1008.5
20260505040046 57 257 0.0 3.5 0.00 0.00 0.00 61 1008.4
20260505034538 58 185 0.9 4.3 0.00 0.00 0.00 60 1008.4
20260505033037 58 77 0.0 2.6 0.00 0.00 0.00 59 1008.4
20260505031536 59 72 0.0 2.6 0.00 0.00 0.00 58 1008.3
20260505030046 59 140 0.0 3.5 0.00 0.00 0.00 57 1008.4
20260505024535 59 290 0.9 4.3 0.00 0.00 0.00 56 1008.4
20260505023035 60 220 0.9 3.5 0.00 0.00 0.00 55 1008.3
20260505021535 60 205 0.0 7.0 0.00 0.00 0.00 54 1008.3
20260505020039 61 271 0.9 4.3 0.00 0.00 0.00 53 1008.3
20260505014553 61 237 2.6 8.7 0.00 0.00 0.00 53 1008.1
20260505013039 62 124 1.7 5.2 0.00 0.00 0.00 52 1008.0
20260505011539 63 159 0.0 6.1 0.00 0.00 0.00 51 1007.6
20260505010034 63 201 0.0 5.2 0.00 0.00 0.00 49 1007.3
20260505004543 64 193 1.7 9.6 0.00 0.00 0.00 48 1006.9
20260505003050 65 20 1.7 8.7 0.00 0.00 0.00 47 1006.5
20260505001530 65 333 2.6 7.0 0.00 0.00 0.00 45 1006.1
20260505000034 66 207 0.9 5.2 0.00 0.00 0.00 41 1005.7
20260504234528 68 257 0.0 3.5 0.00 0.00 0.00 38 1005.3
20260504233029 68 311 0.9 3.5 0.00 0.00 0.00 37 1005.1
20260504231527 69 268 1.7 5.2 0.00 0.00 0.00 36 1004.9
20260504230026 70 285 0.0 4.3 0.00 0.00 0.00 36 1004.7
20260504224526 70 139 1.7 7.8 0.00 0.00 0.00 35 1004.6
20260504223027 71 135 0.0 4.3 0.00 0.00 0.00 35 1004.6
20260504221524 72 41 0.0 3.5 0.00 0.00 0.00 34 1004.6
20260504220023 72 293 2.6 7.0 0.00 0.00 0.00 33 1004.5
20260504214523 72 292 2.6 10.4 0.00 0.00 0.00 33 1004.5
20260504213027 73 51 1.7 11.3 0.00 0.00 0.00 32 1004.5
20260504211533 73 224 1.7 9.6 0.00 0.00 0.00 31 1004.5
20260504210020 73 203 1.7 5.2 0.00 0.00 0.00 32 1004.4
20260504204519 73 251 2.6 7.8 0.00 0.00 0.00 32 1004.6
20260504203018 73 304 0.9 8.7 0.00 0.00 0.00 32 1004.4
20260504201517 72 138 3.5 18.2 0.00 0.00 0.00 31 1004.5
20260504200018 73 115 2.6 10.4 0.00 0.00 0.00 31 1004.6
20260504194515 73 91 2.6 9.6 0.00 0.00 0.00 30 1004.7
20260504193014 73 138 0.9 12.2 0.00 0.00 0.00 31 1004.6
20260504191512 73 248 2.6 9.6 0.00 0.00 0.00 31 1004.8
20260504190009 72 26 1.7 9.6 0.00 0.00 0.00 31 1004.8
20260504184507 72 312 1.7 10.4 0.00 0.00 0.00 31 1005.1
20260504183009 71 314 3.5 9.6 0.00 0.00 0.00 31 1005.2
20260504181505 71 101 3.5 14.8 0.00 0.00 0.00 32 1005.2
20260504180004 70 231 2.6 14.8 0.00 0.00 0.00 32 1005.2
20260504174602 70 278 1.7 9.6 0.00 0.00 0.00 33 1005.3
20260504173059 69 240 1.7 11.3 0.00 0.00 0.00 35 1005.6
20260504171557 68 222 4.3 14.8 0.00 0.00 0.00 33 1005.5
20260504120104 52 240 0.0 7.0 0.00 0.00 0.00 56 1008.7
20260504081532 45 278 0.0 1.7 0.00 0.00 0.00 63 1008.7
20260504050003 41 308 0.0 0.9 0.00 0.00 0.00 67 1008.6
20260504044600 40 283 0.0 0.9 0.00 0.00 0.00 68 1008.7
20260504043103 40 278 0.0 0.9 0.00 0.00 0.00 69 1008.5